DECAYED

CZ-6A DEB, 56617 (Decayed)

Orbit data source: Space-Track

CZ-6A DEB, 56617 was space debris in SSO originally from a launch on Fri, 11 Nov 2022 UTC launched from the Taiyaun Space Center, China (TSC). Debris objects in space refer to the collection of defunct objects orbiting the Earth. Examples of debris include non-operational satellites, rocket bodies, and fragments generated from explosions, collisions, or faulty payload assembly.

Not visible in the next 10 days
Identifier
56617, 2022-151AER
Orbit
Decayed
Country
Flag of CNCN / PRC
Related business
Manufacturer
SAST
Mission
Decayed spacecraft
Bus & Motor
Unknown
Mass
Unknown
Launch date (UTC)
2022-11-11 (4 years ago)
Launch vehicle
Unknown
Launch site
Taiyaun Space Center, China (TSC)
Object type
Payload
Rocket body
Debris
Shape & HBR
Unknown shape, 0.1 m
Radar Cross Section
Small (<0.1 m²)

Expand to show TLE details & history
Last TLE update: 5 months ago

TLE from 5 months ago
0 CZ-6A DEB
1 56617U 22151AER 26030.00089447  .00338034  00000-0  74650-2 0  9994
2 56617  98.5048 128.1146 0033140 171.8336 188.3454 15.42018026149741
Epoch: 2026-01-30T00:01Z
TLE epoch observation values (Epoch: 2026-01-30T00:01:17.282Z)
Latitude
-0.00003°
Longitude
-1.45292°
Altitude
465.603 km
Speed
7.621 km/s
True Right ascension
08h 32m 27s
True Declination
0° 00' 00"
Sunlit
Object was in full shadow at epoch
Visualization orbit readout
Latitude
Unknown
Longitude
Unknown
Altitude
Unknown
Speed
Unknown
Apparent Right ascension
Unknown
Apparent Declination
Unknown
Sunlit
N/A
Visualization observer readout
Local Sidereal Time
21:33:51
Azimuth
Unknown
Elevation
Unknown
Doppler factor
Unknown
Orbital elements
Apogee altitude
459.727 km
Perigee altitude
414.556 km
Semi-major axis
6,815.279 km
Eccentricity
0.00331
Inclination
98.5048°
RAAN
128.1146°
Arg. of periapsis
171.8336°
True anomaly
188.29051°
Mean anomaly
188.3454°
Eccentric anomaly
188.31793°
Mean motion
3.85761 °/min
Orbital period
93.32 mins
BSTAR
0.007465
Loading maneuver chart data...
Computing Atmospheric mass density...
Loading historical data...
Loading historical data...
Loading historical data...
Loading historical data...
Loading historical data...
Loading historical data...
Loading historical data...

Documentation

Showing up to 5 results
|